Hourly Data Report for July 01, 2021

HALIFAX STANFIELD INT'L A
NOVA SCOTIA
Current Station Operator: NAVCAN

44°52'52.000" N
63°30'31.000" W
145.40 m
8202251
71395
YHZ

Download Data

Hourly Data (July 2021)
Hourly Data Report for July 1, 2021
TIME
LST
Temp Definition
°C
Dew Point Definition
°C
Rel Hum Definition
%
Precip. Amount Definition
mm

Wind Dir Definition
10's deg

Wind Spd Definition
km/h
Visibility Definition
km
Stn Press Definition
kPa
Hmdx Definition


Wind Chill Definition


Weather Definition


00:00 19.5 18.5 94   17 14 24.1 99.11     LegendNANA
01:00 19.1 18.5 96   17 14 24.1 99.04     LegendNANA
02:00 19.7 18.9 95   20 14 24.1 99.00     Mostly Cloudy
03:00 19.1 18.5 96   18 13 24.1 98.93     LegendNANA
04:00 18.7 18.2 97   18 12 24.1 98.87     LegendNANA
05:00 18.6 18.0 97   20 18 19.3 98.88     Mostly Cloudy
06:00 18.5 17.9 96   23 17 24.1 98.95     LegendNANA
07:00 19.9 18.7 93   23 20 24.1 98.95     LegendNANA
08:00 21.7 19.4 87   26 21 24.1 98.98 29   Mostly Cloudy
09:00 22.8 20.4 86   28 13 24.1 98.98 31   LegendNANA
10:00 23.2 20.4 84   24 15 24.1 98.99 31   LegendNANA
11:00 22.8 20.4 86   23 14 24.1 99.02 31   Mostly Cloudy
12:00 26.2 21.2 74   26 17 24.1 99.01 35   LegendNANA
13:00 27.9 20.9 65   26 19 24.1 98.99 36   LegendNANA
14:00 28.6 20.0 59   28 18 24.1 98.97 36   Mostly Cloudy
15:00 26.3 19.3 65   33 23 24.1 99.01 33   LegendNANA
16:00 26.2 19.5 66   33 24 24.1 99.04 33   LegendNANA
17:00 25.0 17.8 64   31 23 24.1 99.08 31   Mostly Cloudy
18:00 22.5 18.4 78   32 27 24.1 99.16 29   LegendNANA
19:00 21.2 18.2 83   33 20 24.1 99.25 27   LegendNANA
20:00 19.4 16.7 84   33 18 24.1 99.32     Cloudy
21:00 18.2 15.8 86   33 17 24.1 99.38     LegendNANA
22:00 17.2 15.2 88   35 18 24.1 99.44     LegendNANA
23:00 15.8 14.0 89   35 17 24.1 99.44     Cloudy

Notes on Data Quality.

Legend

  • E = Estimated
  • M = Missing
  • NA = Not Available*
  • [empty] = Indicates an unobserved value
Date modified: